Wind_Speed
43 43 44 44 45 45 46 46 47 48 50 51 51 52 52 54 56 56 55 54 54 57 58 59 60 60 60 62 63 64 66 68 71 72 66 59 55 53 50 47 42 38
44 45 45 46 47 47 47 47 48 50 51 52 52 53 53 54 56 56 56 55 54 56 59 59 61 61 60 61 63 65 66 67 71 71 67 63 61 57 54 52 47 42
46 47 47 48 49 49 49 49 50 51 52 53 54 55 55 56 57 56 56 56 54 56 59 59 61 62 61 61 64 66 67 68 69 70 70 69 65 60 56 54 51 47
48 49 49 50 51 51 52 52 52 53 54 55 56 57 57 58 57 57 57 57 55 56 58 59 61 62 61 62 65 67 67 68 69 70 71 71 68 63 58 54 53 50
50 50 51 52 53 54 54 55 54 55 56 57 58 58 59 59 59 58 58 57 56 56 58 59 61 63 62 63 66 68 67 67 70 72 73 73 71 66 61 58 56 53
52 53 53 54 55 56 56 56 56 57 58 58 59 60 60 61 60 58 57 57 56 56 58 60 62 64 64 66 68 69 68 68 70 73 74 75 74 71 66 63 62 60
54 55 56 57 58 58 58 58 58 59 60 60 60 61 62 63 60 57 58 57 56 56 58 61 63 64 66 69 70 70 68 68 70 73 74 75 77 78 74 68 67 69
56 56 58 59 59 59 59 60 60 61 61 61 62 63 64 62 58 57 59 58 57 58 59 62 63 64 67 69 70 69 69 69 71 74 76 76 78 81 81 76 76 79
56 57 59 60 60 60 61 61 62 62 61 62 63 63 64 60 55 58 60 58 59 61 62 63 64 66 68 69 68 68 69 70 72 75 78 78 79 82 83 82 81 84
57 59 60 60 61 61 61 61 62 62 62 63 63 63 62 58 55 59 60 59 62 65 64 63 64 67 69 69 68 67 69 71 73 76 78 77 80 83 85 84 84 85
58 61 60 61 62 61 60 60 62 63 65 65 63 62 61 57 57 60 61 62 66 67 64 62 64 68 69 68 68 68 70 73 74 77 78 77 80 84 87 87 86 89
61 62 61 62 62 60 60 61 63 65 67 65 63 61 59 56 57 61 64 67 69 66 63 62 65 68 68 68 68 70 72 74 76 79 78 76 80 84 88 89 88 91
63 63 64 64 62 61 61 62 64 66 67 64 61 59 56 54 57 63 68 70 68 65 63 63 65 68 68 68 69 72 73 75 78 80 78 78 82 85 89 91 92 94
64 65 66 65 62 62 62 63 65 67 65 62 59 57 55 55 58 66 70 68 65 64 63 63 65 67 68 69 71 73 74 76 79 80 80 81 84 88 91 94 96 97
66 67 66 63 63 63 63 63 65 64 61 59 57 56 55 56 61 68 69 66 64 64 63 63 66 68 68 69 71 73 74 77 80 81 83 85 88 91 95 97 98 99
66 65 63 63 64 64 62 60 59 59 57 55 54 55 56 59 65 69 68 68 69 68 65 65 67 68 70 70 71 72 75 79 82 83 84 87 91 94 97 98 99 99
58 62 64 64 64 61 58 57 56 55 54 52 53 56 58 62 66 68 70 72 72 70 67 67 68 69 70 70 70 72 76 80 83 84 87 91 94 96 98 99 100 101
55 62 64 63 62 60 58 57 57 55 53 53 56 58 60 64 67 69 72 73 70 68 69 69 69 70 70 70 71 72 76 80 84 88 92 95 97 98 100 101 102 102
52 58 62 67 71 68 59 56 58 57 54 56 59 61 64 67 70 71 73 71 68 69 71 73 73 72 72 72 73 74 78 83 88 93 96 98 99 101 102 102 103 104
52 58 66 72 73 64 54 54 57 57 58 61 65 67 69 71 72 73 73 70 70 72 74 75 75 75 76 77 77 79 84 90 94 97 98 101 102 102 102 103 104 105
58 61 66 68 64 57 55 57 57 59 63 66 69 72 74 74 74 74 72 71 72 74 76 78 79 81 82 81 82 86 91 95 97 99 101 103 103 102 103 105 106 106
59 63 67 67 64 63 64 63 62 64 66 67 72 77 78 76 75 74 72 71 73 76 79 80 82 84 85 86 89 92 95 97 99 101 103 103 103 103 105 107 107 106
57 59 62 63 64 67 68 67 65 67 69 72 79 83 79 76 75 74 72 72 74 78 82 83 85 88 90 92 94 95 96 98 101 103 103 103 104 106 107 109 108 104
55 56 57 58 58 59 62 64 67 71 74 78 83 83 78 76 76 76 75 74 77 81 85 87 90 94 96 97 98 99 100 102 104 103 104 105 106 108 110 109 104 96
55 56 55 54 56 60 65 70 73 77 80 83 84 83 81 80 80 79 78 78 80 85 88 91 95 98 100 102 103 104 104 105 104 104 105 107 109 111 110 103 93 86
54 57 58 59 63 68 70 73 76 79 82 84 84 84 84 83 81 80 79 81 85 89 93 96 100 103 105 107 107 106 106 106 105 106 107 109 111 109 101 91 85 84
Wind_Direction
314 315 315 316 318 318 319 320 319 318 318 320 321 322 323 324 325 326 327 327 327 330 333 334 336 335 334 335 334 333 335 339 344 349 353 355 354 351 346 341 333 325
313 313 314 315 315 316 317 318 318 317 318 319 320 321 322 323 324 324 325 325 324 327 330 332 334 333 332 332 331 331 333 336 340 347 351 352 355 356 354 348 340 329
312 312 313 313 314 315 315 316 316 317 317 317 319 320 321 322 323 323 323 323 322 324 328 330 331 331 330 329 328 328 330 333 337 343 346 347 351 355 357 354 348 337
311 311 312 312 312 313 314 315 316 316 316 317 318 319 319 320 321 321 321 321 321 323 326 328 328 329 328 327 326 326 328 331 334 338 342 345 348 351 354 355 352 344
310 310 311 311 311 312 313 315 315 315 315 316 316 317 318 319 319 320 320 320 321 322 323 325 326 328 327 325 324 325 325 327 331 335 339 343 345 347 350 351 351 347
309 310 310 310 311 312 313 314 314 314 314 315 315 315 316 318 318 318 319 320 321 321 322 324 324 325 326 324 323 324 324 325 328 333 337 340 342 344 346 347 347 347
308 309 309 310 311 312 313 313 313 313 313 314 314 314 316 317 316 317 319 320 320 320 321 322 322 323 323 323 323 323 324 324 326 330 334 338 340 341 343 343 343 343
306 308 310 310 311 311 311 311 312 312 312 312 313 314 316 316 315 316 318 318 318 318 319 320 320 320 321 321 322 323 323 323 324 327 332 336 338 338 340 341 340 340
306 309 310 311 310 310 310 311 311 311 311 311 312 313 315 313 312 316 318 317 317 317 318 319 318 319 320 322 323 323 322 322 323 326 329 333 335 336 337 338 338 338
306 310 310 309 308 308 309 309 309 309 309 310 311 312 314 310 310 315 317 316 316 317 316 316 317 319 321 323 324 322 321 321 322 325 327 329 332 335 335 335 335 335
305 309 307 306 307 307 307 307 307 308 308 308 309 311 311 309 311 316 317 315 316 315 315 315 317 320 322 324 324 322 321 321 322 323 324 325 329 332 333 333 333 332
304 306 304 304 305 305 305 306 306 307 306 307 309 309 309 309 311 315 316 316 315 314 313 314 317 320 322 323 323 321 321 321 322 322 322 322 325 328 330 330 329 328
303 305 304 304 303 303 304 305 305 305 306 307 308 307 307 307 308 313 315 315 314 313 312 313 316 319 321 321 321 321 321 321 322 322 320 319 322 324 326 327 326 326
302 303 303 302 301 302 304 304 304 304 305 306 306 305 305 304 306 311 314 313 312 312 311 311 314 317 318 319 320 321 320 320 322 321 318 318 319 321 323 324 324 324
303 303 301 300 300 301 303 303 302 303 304 304 303 303 303 303 305 309 311 310 310 310 310 310 312 315 316 317 319 319 319 320 321 319 317 317 319 320 321 321 322 323
302 301 300 298 300 301 302 301 300 301 303 301 300 301 302 303 305 308 309 309 309 309 309 310 312 314 315 316 316 317 317 319 319 318 317 317 318 318 318 319 320 322
297 300 300 299 300 302 302 300 299 300 299 296 298 300 300 301 304 307 308 309 310 311 311 311 312 314 314 314 314 315 316 317 317 317 317 317 317 316 317 318 319 321
297 301 301 300 302 303 300 297 296 297 296 295 297 298 297 300 304 306 307 309 312 315 315 314 314 314 313 311 312 313 314 315 315 315 316 316 316 316 316 317 319 320
296 299 300 301 304 303 299 293 291 291 293 297 299 298 298 301 303 304 306 308 312 316 317 316 315 313 312 311 311 312 312 313 314 315 316 316 316 315 316 317 318 320
288 294 297 299 302 299 291 287 287 287 291 298 303 303 303 302 302 303 305 307 310 315 317 317 315 314 313 312 311 311 311 313 314 315 315 315 315 315 316 317 318 318
288 292 294 296 298 296 288 285 285 286 290 297 303 305 304 301 301 302 303 305 309 313 317 317 315 314 313 312 311 311 312 313 314 314 314 314 314 315 316 316 317 317
289 291 291 290 290 291 289 287 285 287 291 295 300 304 303 300 300 300 301 304 308 312 315 315 314 313 313 312 311 312 312 313 313 314 314 314 314 315 315 315 316 316
290 290 291 290 286 284 284 285 286 287 289 292 298 302 301 298 297 298 299 301 305 309 311 312 312 313 312 312 311 311 312 313 313 314 314 314 314 314 314 314 314 314
289 288 290 291 287 284 284 287 288 289 289 293 297 299 298 295 295 296 296 297 301 305 308 310 311 312 311 311 311 311 312 313 313 313 313 313 313 313 312 313 313 313
282 284 288 288 285 284 286 289 290 291 293 295 297 297 296 295 294 293 293 294 298 303 306 308 310 310 310 310 311 312 312 312 312 312 312 312 312 311 311 311 312 313
277 282 285 285 284 285 287 289 292 294 295 296 295 295 295 295 294 292 292 294 297 301 305 307 308 308 309 310 310 311 311 311 311 311 311 311 311 310 310 310 311 312
Height
10926 10924 10922 10920 10918 10916 10914 10911 10908 10905 10902 10900 10898 10895 10892 10889 10886 10883 10880 10877 10874 10870 10867 10863 10860 10856 10854 10851 10847 10843 10841 10838 10833 10828 10821 10815 10810 10806 10802 10799 10795 10791
10921 10919 10917 10915 10913 10912 10910 10907 10904 10901 10898 10896 10893 10891 10889 10886 10882 10879 10876 10873 10870 10866 10862 10858 10855 10852 10850 10847 10843 10839 10837 10834 10830 10826 10821 10815 10811 10806 10801 10797 10794 10790
10916 10914 10912 10910 10908 10906 10904 10903 10900 10897 10894 10891 10889 10887 10884 10881 10878 10875 10872 10869 10866 10862 10858 10854 10851 10848 10846 10842 10839 10835 10833 10830 10827 10823 10819 10813 10808 10804 10800 10796 10792 10789
10911 10909 10907 10905 10902 10900 10899 10897 10895 10892 10889 10886 10884 10881 10879 10876 10874 10871 10868 10864 10861 10857 10853 10850 10847 10844 10841 10837 10834 10831 10828 10826 10823 10821 10816 10811 10805 10801 10798 10795 10791 10788
10905 10903 10901 10899 10897 10894 10893 10891 10889 10886 10884 10881 10878 10876 10873 10871 10869 10866 10863 10859 10856 10852 10848 10845 10841 10838 10836 10833 10830 10827 10825 10822 10819 10816 10812 10807 10802 10799 10795 10792 10789 10786
10900 10898 10895 10893 10891 10889 10887 10885 10883 10880 10877 10875 10872 10870 10867 10865 10862 10860 10857 10854 10850 10846 10842 10838 10835 10832 10830 10827 10824 10822 10820 10817 10813 10810 10806 10801 10796 10793 10790 10787 10784 10782
10894 10892 10890 10888 10886 10883 10881 10879 10876 10873 10871 10868 10866 10863 10861 10858 10856 10853 10851 10848 10844 10841 10837 10834 10831 10828 10825 10821 10818 10815 10812 10809 10806 10803 10801 10796 10790 10786 10783 10781 10778 10776
10889 10887 10884 10882 10879 10877 10874 10872 10869 10866 10864 10862 10859 10856 10853 10851 10849 10847 10844 10842 10839 10836 10833 10830 10828 10824 10821 10817 10812 10808 10805 10802 10799 10797 10794 10791 10785 10781 10777 10774 10770 10768
10884 10882 10879 10876 10873 10870 10868 10865 10862 10859 10857 10855 10852 10849 10847 10845 10843 10841 10839 10836 10833 10830 10827 10825 10822 10818 10814 10810 10806 10802 10798 10796 10793 10791 10787 10784 10780 10776 10772 10769 10765 10761
10879 10876 10873 10870 10867 10864 10861 10858 10855 10853 10851 10848 10846 10844 10841 10839 10837 10835 10832 10830 10827 10824 10821 10818 10815 10810 10806 10801 10798 10795 10792 10789 10786 10784 10781 10777 10773 10769 10765 10762 10759 10756
10873 10871 10868 10864 10861 10859 10856 10853 10850 10847 10844 10842 10840 10838 10835 10833 10831 10828 10826 10824 10821 10818 10815 10811 10807 10802 10797 10794 10791 10789 10786 10782 10779 10777 10775 10772 10767 10764 10760 10756 10752 10749
10869 10866 10862 10859 10856 10854 10851 10848 10845 10841 10837 10835 10833 10831 10829 10826 10824 10821 10819 10817 10814 10811 10808 10804 10799 10795 10791 10788 10785 10782 10779 10776 10774 10771 10769 10766 10762 10759 10755 10751 10747 10744
10864 10861 10856 10853 10850 10848 10846 10844 10840 10836 10832 10829 10827 10824 10822 10820 10818 10815 10813 10810 10807 10804 10800 10797 10793 10789 10785 10782 10779 10775 10772 10770 10767 10765 10763 10759 10756 10753 10749 10745 10741 10737
10859 10855 10850 10847 10843 10841 10841 10838 10834 10831 10828 10824 10821 10819 10817 10815 10812 10809 10807 10804 10801 10798 10795 10792 10788 10784 10780 10776 10773 10770 10767 10763 10761 10759 10756 10752 10749 10746 10742 10738 10733 10728
10852 10847 10843 10839 10836 10835 10835 10832 10828 10825 10822 10819 10816 10813 10812 10809 10806 10804 10801 10798 10795 10793 10791 10788 10784 10780 10775 10771 10768 10765 10761 10758 10755 10753 10749 10745 10742 10738 10733 10730 10725 10720
10843 10840 10836 10831 10829 10829 10828 10825 10821 10819 10816 10813 10810 10808 10805 10803 10801 10798 10795 10792 10789 10786 10784 10782 10779 10774 10770 10766 10763 10759 10755 10751 10749 10746 10743 10739 10735 10730 10726 10722 10717 10712
10836 10832 10829 10824 10822 10822 10821 10818 10816 10814 10811 10808 10805 10802 10799 10796 10794 10791 10787 10783 10780 10777 10775 10773 10771 10768 10764 10760 10757 10753 10749 10745 10742 10739 10735 10732 10727 10722 10717 10713 10708 10703
10832 10826 10822 10818 10817 10816 10814 10811 10809 10808 10805 10803 10800 10797 10793 10790 10787 10784 10780 10776 10772 10768 10765 10763 10762 10761 10757 10754 10750 10747 10743 10738 10735 10731 10727 10723 10718 10713 10708 10703 10698 10692
10829 10822 10817 10813 10812 10812 10809 10805 10803 10801 10799 10798 10795 10791 10788 10785 10781 10777 10773 10769 10765 10761 10757 10753 10752 10751 10749 10746 10743 10740 10736 10732 10727 10723 10718 10713 10708 10704 10699 10693 10688 10682
10827 10823 10817 10812 10810 10809 10806 10801 10798 10796 10794 10792 10788 10785 10782 10778 10774 10770 10766 10763 10759 10755 10751 10746 10743 10742 10740 10738 10735 10731 10728 10724 10718 10714 10709 10703 10698 10694 10689 10684 10679 10673
10826 10823 10818 10811 10808 10806 10802 10798 10794 10791 10788 10785 10781 10778 10774 10770 10767 10763 10760 10757 10753 10750 10746 10741 10735 10732 10730 10729 10727 10723 10719 10715 10710 10705 10700 10694 10689 10684 10679 10674 10669 10665
10825 10820 10812 10806 10803 10800 10795 10791 10788 10784 10780 10776 10773 10770 10766 10762 10759 10756 10753 10750 10747 10743 10741 10737 10731 10726 10722 10719 10718 10715 10711 10706 10701 10696 10691 10685 10679 10673 10668 10664 10659 10655
10817 10811 10804 10798 10794 10790 10786 10783 10780 10776 10772 10769 10765 10762 10758 10755 10751 10749 10746 10743 10740 10737 10735 10731 10726 10721 10716 10712 10709 10706 10703 10698 10692 10687 10681 10674 10668 10662 10657 10653 10649 10645
10805 10800 10795 10790 10786 10782 10779 10777 10773 10769 10765 10762 10758 10755 10751 10747 10744 10742 10738 10735 10733 10730 10727 10724 10719 10714 10709 10705 10700 10696 10692 10688 10682 10678 10671 10663 10657 10651 10647 10644 10640 10635
10792 10787 10783 10781 10777 10774 10771 10768 10763 10760 10757 10753 10750 10746 10743 10740 10737 10734 10730 10726 10724 10721 10717 10714 10710 10705 10700 10696 10690 10685 10681 10677 10672 10668 10661 10654 10647 10640 10636 10633 10630 10626
10780 10777 10774 10771 10768 10765 10762 10759 10755 10752 10748 10745 10741 10738 10735 10732 10729 10727 10722 10718 10714 10711 10707 10703 10700 10695 10690 10685 10680 10675 10670 10666 10662 10657 10651 10644 10636 10629 10626 10624 10621 10617